Tracking 19706 objects as of 16-Jun-2019
HD Live streaming from Space Station
objects crossing your sky now

STARLINK OBJ AD

Track STARLINK OBJ AD now!
10-day predictions


NORAD ID: 44262
Int'l Code: 2019-029AD
Perigee: 555.9 km
Apogee: 558.9 km
Inclination: 53.0 °
Period: 95.7 minutes
Semi major axis: 6928 km
RCS: Unknown
Launch date: May 24, 2019
Source: United States (US)
Launch site: AIR FORCE EASTERN TEST RANGE (AFETR)
aabbcc
Your satellite tracking list
Your tracking list is empty




NASA's NSSDC Master Catalog

Two Line Element Set (TLE):
1 44262U 19029AD  19166.40897749 -.00539706  00000-0 -39660-1 0  9997
2 44262  53.0053  72.2070 0002159 118.1850 241.9356 15.05406130  3520
Source of the keplerian elements: AFSPC